Time,TemperatureF,DewpointF,PressureIn,WindDirection,WindDirectionDegrees,WindSpeedMPH,WindSpeedGustMPH,Humidity,HourlyPrecipIn,Conditions,Clouds,dailyrainin,SoftwareType,DateUTC
2013-05-07 00:00:00,34.0,-99.9,-100.00,WNW,297,5.0,11.0,-999,-99.99,,,-99.99,,2013-05-07 06:00:00,
2013-05-07 00:32:00,34.0,-99.9,-100.00,WNW,297,5.0,11.0,-999,-99.99,,,-99.99,,2013-05-07 06:32:00,
2013-05-07 00:42:00,34.0,-99.9,-100.00,WNW,297,5.0,11.0,-999,-99.99,,,-99.99,,2013-05-07 06:42:00,
2013-05-07 00:52:00,34.0,-99.9,-100.00,WNW,297,5.0,11.0,-999,-99.99,,,-99.99,,2013-05-07 06:52:00,
2013-05-07 01:00:00,33.0,-99.9,-100.00,WSW,239,5.0,13.0,-999,-99.99,,,-99.99,,2013-05-07 07:00:00,
2013-05-07 01:32:00,33.0,-99.9,-100.00,WSW,239,5.0,13.0,-999,-99.99,,,-99.99,,2013-05-07 07:32:00,
2013-05-07 01:43:00,33.0,-99.9,-100.00,WSW,239,5.0,13.0,-999,-99.99,,,-99.99,,2013-05-07 07:43:00,
2013-05-07 01:53:00,33.0,-99.9,-100.00,WSW,239,5.0,13.0,-999,-99.99,,,-99.99,,2013-05-07 07:53:00,
2013-05-07 02:00:00,33.0,-99.9,-100.00,South,184,2.0,4.0,-999,-99.99,,,-99.99,,2013-05-07 08:00:00,
2013-05-07 02:32:00,33.0,-99.9,-100.00,South,184,2.0,4.0,-999,-99.99,,,-99.99,,2013-05-07 08:32:00,
2013-05-07 02:42:00,33.0,-99.9,-100.00,South,184,2.0,4.0,-999,-99.99,,,-99.99,,2013-05-07 08:42:00,
2013-05-07 02:52:00,33.0,-99.9,-100.00,South,184,2.0,4.0,-999,-99.99,,,-99.99,,2013-05-07 08:52:00,
2013-05-07 03:00:00,32.0,-99.9,-100.00,SSE,148,1.0,2.0,-999,-99.99,,,-99.99,,2013-05-07 09:00:00,
2013-05-07 03:33:00,32.0,-99.9,-100.00,SSE,148,1.0,2.0,-999,-99.99,,,-99.99,,2013-05-07 09:33:00,
2013-05-07 03:43:00,32.0,-99.9,-100.00,SSE,148,1.0,2.0,-999,-99.99,,,-99.99,,2013-05-07 09:43:00,
2013-05-07 03:53:00,32.0,-99.9,-100.00,SSE,148,1.0,2.0,-999,-99.99,,,-99.99,,2013-05-07 09:53:00,
2013-05-07 05:00:00,31.0,-99.9,-100.00,WSW,252,3.0,8.0,-999,-99.99,,,-99.99,,2013-05-07 11:00:00,
2013-05-07 05:32:00,31.0,-99.9,-100.00,WSW,252,3.0,8.0,-999,-99.99,,,-99.99,,2013-05-07 11:32:00,
2013-05-07 05:42:00,31.0,-99.9,-100.00,WSW,252,3.0,8.0,-999,-99.99,,,-99.99,,2013-05-07 11:42:00,
2013-05-07 05:52:00,31.0,-99.9,-100.00,WSW,252,3.0,8.0,-999,-99.99,,,-99.99,,2013-05-07 11:52:00,
2013-05-07 06:00:00,32.0,-99.9,-100.00,WSW,238,5.0,11.0,-999,-99.99,,,-99.99,,2013-05-07 12:00:00,
2013-05-07 06:32:00,32.0,-99.9,-100.00,WSW,238,5.0,11.0,-999,-99.99,,,-99.99,,2013-05-07 12:32:00,
2013-05-07 06:42:00,32.0,-99.9,-100.00,WSW,238,5.0,11.0,-999,-99.99,,,-99.99,,2013-05-07 12:42:00,
2013-05-07 06:52:00,32.0,-99.9,-100.00,WSW,238,5.0,11.0,-999,-99.99,,,-99.99,,2013-05-07 12:52:00,
2013-05-07 07:00:00,32.0,-99.9,-100.00,SE,146,2.0,5.0,-999,-99.99,,,-99.99,,2013-05-07 13:00:00,
2013-05-07 07:32:00,32.0,-99.9,-100.00,SE,146,2.0,5.0,-999,-99.99,,,-99.99,,2013-05-07 13:32:00,
2013-05-07 07:42:00,32.0,-99.9,-100.00,SE,146,2.0,5.0,-999,-99.99,,,-99.99,,2013-05-07 13:42:00,
2013-05-07 07:52:00,32.0,-99.9,-100.00,SE,146,2.0,5.0,-999,-99.99,,,-99.99,,2013-05-07 13:52:00,
2013-05-07 08:00:00,35.0,-99.9,-100.00,SSW,208,2.0,7.0,-999,-99.99,,,-99.99,,2013-05-07 14:00:00,
2013-05-07 08:32:00,35.0,-99.9,-100.00,SSW,208,2.0,7.0,-999,-99.99,,,-99.99,,2013-05-07 14:32:00,
2013-05-07 08:42:00,35.0,-99.9,-100.00,SSW,208,2.0,7.0,-999,-99.99,,,-99.99,,2013-05-07 14:42:00,
2013-05-07 08:52:00,35.0,-99.9,-100.00,SSW,208,2.0,7.0,-999,-99.99,,,-99.99,,2013-05-07 14:52:00,
2013-05-07 09:00:00,38.0,-99.9,-100.00,South,175,3.0,9.0,-999,-99.99,,,-99.99,,2013-05-07 15:00:00,
2013-05-07 09:33:00,38.0,-99.9,-100.00,South,175,3.0,9.0,-999,-99.99,,,-99.99,,2013-05-07 15:33:00,
2013-05-07 09:43:00,38.0,-99.9,-100.00,South,175,3.0,9.0,-999,-99.99,,,-99.99,,2013-05-07 15:43:00,
2013-05-07 09:53:00,38.0,-99.9,-100.00,South,175,3.0,9.0,-999,-99.99,,,-99.99,,2013-05-07 15:53:00,
2013-05-07 12:00:00,43.0,-99.9,-100.00,SSW,207,8.0,17.0,-999,-99.99,,,-99.99,,2013-05-07 18:00:00,
2013-05-07 12:32:00,43.0,-99.9,-100.00,SSW,207,8.0,17.0,-999,-99.99,,,-99.99,,2013-05-07 18:32:00,
2013-05-07 12:42:00,43.0,-99.9,-100.00,SSW,207,8.0,17.0,-999,-99.99,,,-99.99,,2013-05-07 18:42:00,
2013-05-07 12:52:00,43.0,-99.9,-100.00,SSW,207,8.0,17.0,-999,-99.99,,,-99.99,,2013-05-07 18:52:00,
2013-05-07 14:00:00,45.0,-99.9,-100.00,SSE,152,4.0,11.0,-999,-99.99,,,-99.99,,2013-05-07 20:00:00,
2013-05-07 14:32:00,45.0,-99.9,-100.00,SSE,152,4.0,11.0,-999,-99.99,,,-99.99,,2013-05-07 20:32:00,
2013-05-07 14:42:00,45.0,-99.9,-100.00,SSE,152,4.0,11.0,-999,-99.99,,,-99.99,,2013-05-07 20:42:00,
2013-05-07 14:52:00,45.0,-99.9,-100.00,SSE,152,4.0,11.0,-999,-99.99,,,-99.99,,2013-05-07 20:52:00,
2013-05-07 15:00:00,39.0,-99.9,-100.00,WSW,249,8.0,26.0,-999,-99.99,,,-99.99,,2013-05-07 21:00:00,
2013-05-07 15:33:00,39.0,-99.9,-100.00,WSW,249,8.0,26.0,-999,-99.99,,,-99.99,,2013-05-07 21:33:00,
2013-05-07 15:43:00,39.0,-99.9,-100.00,WSW,249,8.0,26.0,-999,-99.99,,,-99.99,,2013-05-07 21:43:00,
2013-05-07 15:53:00,39.0,-99.9,-100.00,WSW,249,8.0,26.0,-999,-99.99,,,-99.99,,2013-05-07 21:53:00,
2013-05-07 16:00:00,43.0,-99.9,-100.00,SSW,207,9.0,19.0,-999,-99.99,,,-99.99,,2013-05-07 22:00:00,
2013-05-07 16:33:00,43.0,-99.9,-100.00,SSW,207,9.0,19.0,-999,-99.99,,,-99.99,,2013-05-07 22:33:00,
2013-05-07 16:42:00,43.0,-99.9,-100.00,SSW,207,9.0,19.0,-999,-99.99,,,-99.99,,2013-05-07 22:42:00,
2013-05-07 16:52:00,43.0,-99.9,-100.00,SSW,207,9.0,19.0,-999,-99.99,,,-99.99,,2013-05-07 22:52:00,
2013-05-07 17:00:00,46.0,-99.9,-100.00,SE,127,6.0,13.0,-999,-99.99,,,-99.99,,2013-05-07 23:00:00,
2013-05-07 17:32:00,46.0,-99.9,-100.00,SE,127,6.0,13.0,-999,-99.99,,,-99.99,,2013-05-07 23:32:00,
2013-05-07 17:42:00,46.0,-99.9,-100.00,SE,127,6.0,13.0,-999,-99.99,,,-99.99,,2013-05-07 23:42:00,
2013-05-07 17:52:00,46.0,-99.9,-100.00,SE,127,6.0,13.0,-999,-99.99,,,-99.99,,2013-05-07 23:52:00,
2013-05-07 18:00:00,44.0,-99.9,-100.00,SE,141,6.0,18.0,-999,-99.99,,,-99.99,,2013-05-08 00:00:00,
2013-05-07 18:32:00,44.0,-99.9,-100.00,SE,141,6.0,18.0,-999,-99.99,,,-99.99,,2013-05-08 00:32:00,
2013-05-07 18:42:00,44.0,-99.9,-100.00,SE,141,6.0,18.0,-999,-99.99,,,-99.99,,2013-05-08 00:42:00,
2013-05-07 18:52:00,44.0,-99.9,-100.00,SE,141,6.0,18.0,-999,-99.99,,,-99.99,,2013-05-08 00:52:00,
2013-05-07 19:00:00,39.0,-99.9,-100.00,WSW,242,13.0,20.0,-999,-99.99,,,-99.99,,2013-05-08 01:00:00,
2013-05-07 19:32:00,39.0,-99.9,-100.00,WSW,242,13.0,20.0,-999,-99.99,,,-99.99,,2013-05-08 01:32:00,
2013-05-07 19:42:00,39.0,-99.9,-100.00,WSW,242,13.0,20.0,-999,-99.99,,,-99.99,,2013-05-08 01:42:00,
2013-05-07 19:52:00,39.0,-99.9,-100.00,WSW,242,13.0,20.0,-999,-99.99,,,-99.99,,2013-05-08 01:52:00,
2013-05-07 20:00:00,38.0,-99.9,-100.00,West,259,7.0,18.0,-999,-99.99,,,-99.99,,2013-05-08 02:00:00,
2013-05-07 20:32:00,38.0,-99.9,-100.00,West,259,7.0,18.0,-999,-99.99,,,-99.99,,2013-05-08 02:32:00,
2013-05-07 20:42:00,38.0,-99.9,-100.00,West,259,7.0,18.0,-999,-99.99,,,-99.99,,2013-05-08 02:42:00,
2013-05-07 20:52:00,38.0,-99.9,-100.00,West,259,7.0,18.0,-999,-99.99,,,-99.99,,2013-05-08 02:52:00,
2013-05-07 21:00:00,35.0,-99.9,-100.00,South,188,4.0,10.0,-999,-99.99,,,-99.99,,2013-05-08 03:00:00,
2013-05-07 21:33:00,35.0,-99.9,-100.00,South,188,4.0,10.0,-999,-99.99,,,-99.99,,2013-05-08 03:33:00,
2013-05-07 21:43:00,35.0,-99.9,-100.00,South,188,4.0,10.0,-999,-99.99,,,-99.99,,2013-05-08 03:43:00,
2013-05-07 21:53:00,35.0,-99.9,-100.00,South,188,4.0,10.0,-999,-99.99,,,-99.99,,2013-05-08 03:53:00,
2013-05-07 22:00:00,32.0,-99.9,-100.00,SE,139,3.0,8.0,-999,-99.99,,,-99.99,,2013-05-08 04:00:00,
2013-05-07 22:33:00,32.0,-99.9,-100.00,SE,139,3.0,8.0,-999,-99.99,,,-99.99,,2013-05-08 04:33:00,
2013-05-07 22:43:00,32.0,-99.9,-100.00,SE,139,3.0,8.0,-999,-99.99,,,-99.99,,2013-05-08 04:43:00,
2013-05-07 22:53:00,32.0,-99.9,-100.00,SE,139,3.0,8.0,-999,-99.99,,,-99.99,,2013-05-08 04:53:00,
2013-05-07 23:00:00,31.0,-99.9,-100.00,South,174,5.0,10.0,-999,-99.99,,,-99.99,,2013-05-08 05:00:00,
2013-05-07 23:32:00,31.0,-99.9,-100.00,South,174,5.0,10.0,-999,-99.99,,,-99.99,,2013-05-08 05:32:00,
2013-05-07 23:42:00,31.0,-99.9,-100.00,South,174,5.0,10.0,-999,-99.99,,,-99.99,,2013-05-08 05:42:00,
2013-05-07 23:52:00,31.0,-99.9,-100.00,South,174,5.0,10.0,-999,-99.99,,,-99.99,,2013-05-08 05:52:00,